| time (UTC) | temp C | wind direction | speed KPH | gust KPH | rain 1hr cm | rain 24hr cm | rain mn cm | humidity % | barometer mb |
| 20260504214555 | 10 | 294 | 4.8 | 24.1 | 0.00 | 0.00 | 0.00 | 48 | 997.8 |
| 20260504213107 | 12 | 310 | 3.2 | 12.9 | 0.00 | 0.00 | 0.00 | 31 | 997.6 |
| 20260504211554 | 14 | 246 | 8.0 | 16.1 | 0.00 | 0.00 | 0.00 | 29 | 997.5 |
| 20260504204610 | 13 | 189 | 3.2 | 17.7 | 0.00 | 0.00 | 0.00 | 38 | 997.9 |
| 20260504203122 | 12 | 265 | 4.8 | 11.3 | 0.00 | 0.00 | 0.00 | 38 | 998.4 |
| 20260504201600 | 13 | 267 | 4.8 | 19.3 | 0.00 | 0.00 | 0.00 | 36 | 998.5 |
| 20260504200126 | 13 | 309 | 6.4 | 17.7 | 0.00 | 0.00 | 0.00 | 38 | 998.6 |
| 20260504194618 | 12 | 247 | 6.4 | 14.5 | 0.00 | 0.00 | 0.00 | 34 | 998.6 |
| 20260504193010 | 12 | 360 | 4.8 | 14.5 | 0.00 | 0.00 | 0.00 | 30 | 999.0 |
| 20260504191628 | 11 | 322 | 0.0 | 12.9 | 0.00 | 0.00 | 0.00 | 38 | 999.4 |
| 20260504190018 | 10 | 281 | 3.2 | 22.5 | 0.00 | 0.00 | 0.00 | 38 | 999.7 |
| 20260504184542 | 11 | 286 | 4.8 | 14.5 | 0.00 | 0.00 | 0.00 | 35 | 999.4 |
| 20260504183043 | 11 | 256 | 3.2 | 12.9 | 0.00 | 0.00 | 0.00 | 32 | 999.7 |
| 20260504181557 | 11 | 259 | 6.4 | 14.5 | 0.00 | 0.00 | 0.00 | 36 | 999.8 |
| 20260504180038 | 11 | 360 | 4.8 | 12.9 | 0.00 | 0.00 | 0.00 | 32 | 1000.0 |
| 20260504174503 | 12 | 265 | 3.2 | 9.7 | 0.00 | 0.00 | 0.00 | 35 | 1000.0 |
| 20260504173120 | 12 | 279 | 6.4 | 16.1 | 0.00 | 0.00 | 0.00 | 34 | 1000.5 |
| 20260504171619 | 12 | 281 | 4.8 | 19.3 | 0.00 | 0.00 | 0.00 | 35 | 1000.9 |
| 20260504140109 | 6 | 84 | 0.0 | 0.0 | 0.00 | 0.00 | 0.00 | 50 | 1002.5 |
| 20260504120118 | 3 | 142 | 0.0 | 0.0 | 0.00 | 0.00 | 0.00 | 53 | 1002.5 |
| 20260504100115 | 3 | 82 | 0.0 | 0.0 | 0.00 | 0.00 | 0.00 | 50 | 1002.8 |
| 20260504090118 | 3 | 80 | 3.2 | 4.8 | 0.00 | 0.00 | 0.00 | 51 | 1003.0 |
| 20260504081600 | 3 | 86 | 0.0 | 3.2 | 0.00 | 0.00 | 0.00 | 50 | 1003.6 |
| 20260504080105 | 3 | 72 | 1.6 | 4.8 | 0.00 | 0.00 | 0.00 | 50 | 1003.8 |
| 20260504044604 | 5 | 63 | 0.0 | 0.0 | 0.00 | 0.00 | 0.00 | 42 | 1004.8 |
| 20260504043108 | 6 | 46 | 0.0 | 0.0 | 0.00 | 0.00 | 0.00 | 42 | 1005.0 |
| 20260504041556 | 6 | 338 | 0.0 | 0.0 | 0.00 | 0.00 | 0.00 | 41 | 1005.0 |
| 20260504040116 | 6 | 338 | 0.0 | 0.0 | 0.00 | 0.00 | 0.00 | 39 | 1005.0 |
| 20260504034634 | 7 | 338 | 0.0 | 0.0 | 0.00 | 0.00 | 0.00 | 40 | 1005.1 |
| 20260504033056 | 7 | 338 | 0.0 | 3.2 | 0.00 | 0.00 | 0.00 | 39 | 1005.0 |
| 20260504031517 | 7 | 338 | 0.0 | 1.6 | 0.00 | 0.00 | 0.00 | 36 | 1005.1 |
| 20260504030007 | 7 | 338 | 0.0 | 3.2 | 0.00 | 0.00 | 0.00 | 39 | 1005.0 |
| 20260504024511 | 7 | 338 | 0.0 | 8.0 | 0.00 | 0.00 | 0.00 | 37 | 1004.9 |
| 20260504023002 | 8 | 343 | 0.0 | 0.0 | 0.00 | 0.00 | 0.00 | 35 | 1004.7 |
| 20260504021609 | 8 | 343 | 0.0 | 0.0 | 0.00 | 0.00 | 0.00 | 33 | 1004.5 |
| 20260504020108 | 9 | 343 | 0.0 | 0.0 | 0.00 | 0.00 | 0.00 | 35 | 1004.4 |
| 20260504014607 | 10 | 336 | 1.6 | 8.0 | 0.00 | 0.00 | 0.00 | 32 | 1004.2 |
| 20260504013057 | 10 | 351 | 1.6 | 9.7 | 0.00 | 0.00 | 0.00 | 29 | 1004.3 |
| 20260504011511 | 11 | 297 | 3.2 | 12.9 | 0.00 | 0.00 | 0.00 | 27 | 1004.2 |
| 20260504010009 | 11 | 300 | 3.2 | 8.0 | 0.00 | 0.00 | 0.00 | 31 | 1004.3 |
| 20260504004516 | 11 | 47 | 0.0 | 3.2 | 0.00 | 0.00 | 0.00 | 28 | 1004.5 |
| 20260504003017 | 12 | 239 | 1.6 | 11.3 | 0.00 | 0.00 | 0.00 | 29 | 1004.4 |
| 20260504001505 | 12 | 267 | 1.6 | 11.3 | 0.00 | 0.00 | 0.00 | 25 | 1004.4 |
| 20260504000017 | 12 | 323 | 1.6 | 8.0 | 0.00 | 0.00 | 0.00 | 26 | 1004.5 |
| 20260503234538 | 11 | 317 | 4.8 | 20.9 | 0.00 | 0.00 | 0.00 | 24 | 1004.5 |
| 20260503233041 | 11 | 294 | 0.0 | 6.4 | 0.00 | 0.00 | 0.00 | 27 | 1004.6 |
| 20260503231540 | 12 | 255 | 1.6 | 11.3 | 0.00 | 0.00 | 0.00 | 25 | 1004.5 |
| 20260503230126 | 13 | 255 | 3.2 | 8.0 | 0.00 | 0.00 | 0.00 | 28 | 1004.4 |
| 20260503224514 | 12 | 276 | 4.8 | 16.1 | 0.00 | 0.00 | 0.00 | 25 | 1004.6 |
| 20260503223051 | 12 | 301 | 4.8 | 11.3 | 0.00 | 0.00 | 0.00 | 26 | 1004.9 |
| 20260503221608 | 12 | 265 | 3.2 | 9.7 | 0.00 | 0.00 | 0.00 | 26 | 1005.0 |
| 20260503220111 | 13 | 275 | 6.4 | 12.9 | 0.00 | 0.00 | 0.00 | 26 | 1005.3 |